My Meet Scores
Donna-Rose Reyna, Gymkhana Gymnastics Club and Dance Studio - MyMeetScores.com
Top100 | Top Teams | Upcoming Meets | Completed Meets | Latest | Add Scores | Help| Support | Bookmark and Share

Donna-Rose Reyna, Gymkhana Gymnastics Club and Dance Studio
Personal Bests
LevelVault BarsBeamFloorAA
39.4509.250 9.2009.62537.525
49.3508.850 9.4509.65037.200
59.4009.325 9.1009.37536.950
79.6259.450 9.4759.37537.775
89.2509.525 9.3509.40037.075
98.9508.650 9.2009.10035.525
Meet Scores
Date Meet Team Session Level Division Vault Bars Beam Floor AA
2019-04-11 Region 5 9/10 Championships Gymkhana Gymnastics Club and Dance Studio 08 9 Sr 5 8.950 19T 8.125 19 8.650 15 9.100 13 34.825 18
2019-03-15 Illinois State Championship Level 6,9,10 Gymkhana Gymnastics Club and Dance Studio 5 9 Sr B 8.925 14 8.400 14 9.200 4T 9.000 9 35.525 10
2019-02-23 Kinetic Classic 2019 Gymkhana Gymnastics Club and Dance Studio 1 9 Older 8.475 10 8.650 6 8.275 11 8.675 8T 34.075 11
2019-02-08 Midwest Twisters Harley Meet Womens Gymkhana Gymnastics Club and Dance Studio O08 9 15 un 8.650 5 7.725 8 8.850 3 8.350 3 33.575 5
2019-01-18 CGA Coaches Spectacular Gymkhana Gymnastics Club and Dance Studio 2A 9 15 up 7.775 15 7.950 12 7.550 16 8.575 12 31.850 13
2018-04-20 2018 Region 5 Levels 7/8 Championships Gymkhana Gymnastics Club and Dance Studio 02B 8 Sr D1 9.250 8T 9.525 2T 9.075 13T 9.225 17T 37.075 5
2018-03-23 Illinois Level 7 & 8 State Competition Gymkhana Gymnastics Club and Dance Studio 01 8 Sr C 8.775 12 9.450 2 9.350 2 9.350 3T 36.925 2
2018-02-16 Big Classic Gymkhana Gymnastics Club and Dance Studio 6A 8 Senior A 8.550 4 8.500 4 9.250 2 9.400 2 35.700 2
2018-02-08 Hal's Harley-Davidson Invite Womens Gymkhana Gymnastics Club and Dance Studio O06 8 14 yrs. 9.150 1T 9.375 2 8.750 5 8.525 5 35.800 2
2017-04-21 2017 Region 5 Levels 7 & 8 Championships Gymkhana Gymnastics Club and Dance Studio 11 7 Sr D 1 9.625 3T 9.450 5T 9.425 1 9.275 8T 37.775 1
2017-03-23 2017 Illinois Level 6, 7 State Championship Gymkhana Gymnastics Club and Dance Studio 5 7 Sr D 9.475 12T 9.450 4* 9.475 2T 9.250 24* 37.650 3T
2017-02-17 Big Classic Gymkhana Gymnastics Club and Dance Studio A 7 Junior B 9.025 23 9.150 5T 8.875 15T 9.225 16T 36.275 14
2017-01-20 80s Throwback Classic Gymkhana Gymnastics Club and Dance Studio 3 7 All 9.400 3 8.900 5 9.450 1 9.200 7T 36.950 2
2017-01-07 2017 Flip'r Invitational Gymkhana Gymnastics Club and Dance Studio 7 Lvl 7: Senior 9.100 6 9.100 4 9.350 1 9.375 1 36.925 1
2016-12-02 Ultimate Wish Classic Gymkhana Gymnastics Club and Dance Studio 7 7 Senior 9.100 3T 8.750 10 8.600 6T 9.150 7 35.600 6
2016-04-22 2016 Illinois Level 5 And Xcel State Championships Gymkhana Gymnastics Club and Dance Studio 1 5 Sr C 9.350 1T 9.325 2 8.900 9 9.375 1 36.950 1
2016-02-19 Midwest Open Womens 2016 Gymkhana Gymnastics Club and Dance Studio 2A 5 12+ 9.250 3 9.100 1 8.850 6 9.200 3 36.400 2
2016-01-22 King Arthur Invitational Gymkhana Gymnastics Club and Dance Studio S9 5 Sr.B 9.400 2 9.150 3 8.750 10 9.250 4 36.550 5
2016-01-08 Leendas Island Adventure Gymkhana Gymnastics Club and Dance Studio Green1 5 12 and Ove 9.075 2 8.250 2 8.950 2 8.800 2 35.075 2
2015-12-04 2015 Ultimate Wish Classic Gymkhana Gymnastics Club and Dance Studio 9A 5 All 8.750 30 9.050 13 9.100 9 9.200 4 36.100 5
2015-03-19 2015 Illinois Level 4 State Championship Gymkhana Gymnastics Club and Dance Studio All 4 Sr.C 9.250 5 8.850 12 9.450 7 9.650 1 37.200 4
2015-03-13 2015 Lucky Invite Gymkhana Gymnastics Club and Dance Studio B6 4 Sr.B 8.550 5 8.100 7 9.350 4 9.425 3 35.425 2
2015-02-20 Midwest Open 2015 Gymkhana Gymnastics Club and Dance Studio 9A 4 11+ 9.275 1 7.800 6 9.050 2 9.425 2 35.550 2
2014-10-25 Twist And Turn Gymkhana Gymnastics Club and Dance Studio 6 4 Sr 9.350 1 8.350 9 9.425 1 9.575 1 36.700 1
2014-03-07 Illinois Level 3 State Meet Gymkhana Gymnastics Club and Dance Studio 5 3 Sr D 9.450 13 9.250 14 9.200 8 9.625 2 37.525 6
Get your scores on
a t-shirt, pin, or hoodie

Order by December 13

www.lazysuits.com